• In Austria
  • List of Countries
  • For 7 days
  • Water Temperature
  • Satellite Maps
  • Weather Map
  • News
  • Weather Widgets
  • user-avatar
    Login

    Hourly Weather Chiredzi

    Today, 17 August, Friday

    Time Temperature Precipitation Wind Pressure Humidity
    00:00 +24°C° 0 mm 2 mps 728 mmHg 37%
    01:00 +23°C° 0 mm 2 mps 728 mmHg 41%
    02:00 +22°C° 0 mm 1 mps 728 mmHg 45%
    03:00 +21°C° 0 mm 1 mps 728 mmHg 47%
    04:00 +21°C° 0 mm 1 mps 728 mmHg 48%
    05:00 +20°C° 0 mm 1 mps 728 mmHg 49%
    06:00 +22°C° 0 mm 1 mps 728 mmHg 44%
    07:00 +23°C° 0 mm 1 mps 728 mmHg 38%
    08:00 +25°C° 0 mm 1 mps 729 mmHg 29%
    09:00 +28°C° 0 mm 1 mps 729 mmHg 24%
    10:00 +31°C° 0 mm 1 mps 729 mmHg 19%
    11:00 +35°C° 0 mm 2 mps 729 mmHg 14%
    12:00 +36°C° 0 mm 1 mps 728 mmHg 13%
    13:00 +37°C° 0 mm 1 mps 727 mmHg 12%
    14:00 +37°C° 0 mm 0 mps 727 mmHg 10%
    15:00 +37°C° 0 mm 1 mps 726 mmHg 11%
    16:00 +36°C° 0 mm 1 mps 726 mmHg 12%
    17:00 +35°C° 0 mm 1 mps 726 mmHg 12%
    18:00 +33°C° 0 mm 1 mps 726 mmHg 14%
    19:00 +31°C° 0 mm 2 mps 726 mmHg 15%
    20:00 +29°C° 0 mm 2 mps 726 mmHg 17%
    21:00 +28°C° 0 mm 2 mps 726 mmHg 19%
    22:00 +27°C° 0 mm 2 mps 727 mmHg 21%
    23:00 +26°C° 0 mm 2 mps 727 mmHg 22%

    Tomorrow, 18 August, Saturday

    Time Temperature Precipitation Wind Pressure Humidity
    00:00 +25°C° 0 mm 2 mps 727 mmHg 25%
    01:00 +25°C° 0 mm 2 mps 728 mmHg 28%
    02:00 +24°C° 0 mm 2 mps 728 mmHg 31%
    03:00 +22°C° 0 mm 3 mps 728 mmHg 44%
    04:00 +21°C° 0 mm 4 mps 729 mmHg 58%
    05:00 +21°C° 0 mm 5 mps 729 mmHg 72%
    06:00 +21°C° 0.1 mm 6 mps 730 mmHg 73%
    07:00 +21°C° 0.1 mm 6 mps 731 mmHg 74%
    08:00 +21°C° 0.1 mm 6 mps 732 mmHg 74%
    09:00 +22°C° 0.1 mm 6 mps 732 mmHg 74%
    10:00 +22°C° 0.1 mm 5 mps 732 mmHg 73%
    11:00 +22°C° 0.1 mm 5 mps 733 mmHg 72%
    12:00 +22°C° 0.1 mm 5 mps 732 mmHg 70%
    13:00 +23°C° 0.1 mm 5 mps 732 mmHg 69%
    14:00 +23°C° 0.1 mm 5 mps 732 mmHg 67%
    15:00 +23°C° 0 mm 5 mps 732 mmHg 68%
    16:00 +22°C° 0 mm 5 mps 732 mmHg 68%
    17:00 +22°C° 0 mm 5 mps 732 mmHg 69%
    18:00 +21°C° 0 mm 5 mps 732 mmHg 70%
    19:00 +21°C° 0 mm 5 mps 732 mmHg 72%
    20:00 +20°C° 0 mm 5 mps 733 mmHg 73%
    21:00 +20°C° 0.1 mm 5 mps 733 mmHg 75%
    22:00 +20°C° 0.1 mm 4 mps 733 mmHg 76%
    23:00 +19°C° 0.1 mm 4 mps 733 mmHg 77%

    Day after tomorrow, 19 August, Sunday

    Time Temperature Precipitation Wind Pressure Humidity
    00:00 +19°C° 0.1 mm 4 mps 733 mmHg 78%
    01:00 +19°C° 0.1 mm 3 mps 733 mmHg 80%
    02:00 +19°C° 0.1 mm 3 mps 732 mmHg 81%
    03:00 +19°C° 0.1 mm 3 mps 732 mmHg 82%
    04:00 +18°C° 0.1 mm 3 mps 732 mmHg 83%
    05:00 +18°C° 0.1 mm 2 mps 732 mmHg 84%
    06:00 +19°C° 0.1 mm 2 mps 732 mmHg 83%
    07:00 +19°C° 0.1 mm 2 mps 732 mmHg 83%
    08:00 +19°C° 0.1 mm 2 mps 733 mmHg 82%
    09:00 +20°C° 0 mm 2 mps 733 mmHg 76%
    10:00 +23°C° 0 mm 2 mps 733 mmHg 70%
    11:00 +24°C° 0 mm 2 mps 733 mmHg 64%
    12:00 +26°C° 0 mm 1 mps 732 mmHg 58%
    13:00 +27°C° 0 mm 1 mps 731 mmHg 52%
    14:00 +29°C° 0 mm 1 mps 730 mmHg 46%
    15:00 +29°C° 0 mm 1 mps 729 mmHg 45%
    16:00 +28°C° 0 mm 1 mps 729 mmHg 45%
    17:00 +28°C° 0 mm 1 mps 728 mmHg 45%
    18:00 +27°C° 0 mm 1 mps 729 mmHg 49%
    19:00 +25°C° 0 mm 1 mps 729 mmHg 54%
    20:00 +24°C° 0 mm 1 mps 729 mmHg 59%
    21:00 +23°C° 0 mm 1 mps 729 mmHg 62%
    22:00 +23°C° 0 mm 1 mps 729 mmHg 65%
    23:00 +22°C° 0 mm 1 mps 729 mmHg 68%

    20 August, Monday

    Time Temperature Precipitation Wind Pressure Humidity
    00:00 +22°C° 0 mm 1 mps 729 mmHg 71%
    01:00 +21°C° 0 mm 1 mps 728 mmHg 73%
    02:00 +21°C° 0 mm 1 mps 728 mmHg 76%
    03:00 +20°C° 0 mm 1 mps 728 mmHg 78%
    04:00 +20°C° 0 mm 1 mps 728 mmHg 80%
    05:00 +17°C° 0 mm 0 mps 728 mmHg 82%
    06:00 +19°C° 0 mm 0 mps 728 mmHg 75%
    07:00 +20°C° 0 mm 0 mps 729 mmHg 69%
    08:00 +22°C° 0 mm 0 mps 730 mmHg 63%
    09:00 +26°C° 0 mm 1 mps 729 mmHg 53%
    10:00 +29°C° 0 mm 1 mps 729 mmHg 44%
    11:00 +32°C° 0 mm 1 mps 729 mmHg 34%
    12:00 +34°C° 0 mm 1 mps 728 mmHg 30%
    13:00 +35°C° 0 mm 1 mps 727 mmHg 25%
    14:00 +36°C° 0 mm 1 mps 727 mmHg 21%
    15:00 +35°C° 0 mm 1 mps 726 mmHg 21%
    16:00 +35°C° 0 mm 1 mps 726 mmHg 21%
    17:00 +34°C° 0 mm 1 mps 726 mmHg 20%
    18:00 +32°C° 0 mm 1 mps 726 mmHg 23%
    19:00 +30°C° 0 mm 1 mps 726 mmHg 25%
    20:00 +29°C° 0 mm 2 mps 727 mmHg 27%
    21:00 +28°C° 0 mm 2 mps 727 mmHg 28%
    22:00 +27°C° 0 mm 2 mps 727 mmHg 30%
    23:00 +26°C° 0 mm 2 mps 727 mmHg 32%

    21 August, Tuesday

    Time Temperature Precipitation Wind Pressure Humidity
    00:00 +25°C° 0 mm 2 mps 727 mmHg 34%
    01:00 +24°C° 0 mm 1 mps 726 mmHg 36%
    02:00 +24°C° 0 mm 1 mps 726 mmHg 38%
    03:00 +23°C° 0 mm 1 mps 726 mmHg 40%
    04:00 +23°C° 0 mm 1 mps 726 mmHg 42%
    05:00 +22°C° 0 mm 1 mps 726 mmHg 43%
    06:00 +24°C° 0 mm 1 mps 727 mmHg 40%
    07:00 +25°C° 0 mm 1 mps 727 mmHg 36%
    08:00 +27°C° 0 mm 1 mps 728 mmHg 33%
    09:00 +29°C° 0 mm 1 mps 728 mmHg 28%
    10:00 +32°C° 0 mm 2 mps 728 mmHg 23%
    11:00 +36°C° 0 mm 2 mps 727 mmHg 17%
    12:00 +37°C° 0 mm 2 mps 727 mmHg 15%
    13:00 +38°C° 0 mm 2 mps 726 mmHg 13%
    14:00 +38°C° 0 mm 2 mps 725 mmHg 11%
    15:00 +38°C° 0 mm 2 mps 725 mmHg 11%
    16:00 +37°C° 0 mm 2 mps 725 mmHg 12%
    17:00 +36°C° 0 mm 3 mps 725 mmHg 13%
    18:00 +34°C° 0 mm 3 mps 725 mmHg 16%
    19:00 +31°C° 0 mm 3 mps 726 mmHg 19%
    20:00 +30°C° 0 mm 4 mps 726 mmHg 22%
    21:00 +29°C° 0 mm 4 mps 726 mmHg 29%
    22:00 +28°C° 0 mm 4 mps 726 mmHg 35%
    23:00 +27°C° 0 mm 4 mps 726 mmHg 41%

    22 August, Wednesday

    Time Temperature Precipitation Wind Pressure Humidity
    00:00 +26°C° 0 mm 3 mps 726 mmHg 46%
    01:00 +25°C° 0 mm 3 mps 726 mmHg 50%
    02:00 +24°C° 0 mm 2 mps 726 mmHg 54%
    03:00 +24°C° 0 mm 2 mps 726 mmHg 56%
    04:00 +23°C° 0 mm 2 mps 726 mmHg 59%
    05:00 +21°C° 0 mm 2 mps 726 mmHg 61%
    06:00 +23°C° 0 mm 2 mps 726 mmHg 58%
    07:00 +24°C° 0 mm 2 mps 727 mmHg 56%
    08:00 +25°C° 0 mm 3 mps 728 mmHg 54%
    09:00 +28°C° 0 mm 3 mps 727 mmHg 45%
    10:00 +30°C° 0 mm 3 mps 727 mmHg 37%
    11:00 +34°C° 0 mm 3 mps 727 mmHg 28%
    12:00 +35°C° 0 mm 3 mps 726 mmHg 25%
    13:00 +36°C° 0 mm 3 mps 725 mmHg 22%
    14:00 +37°C° 0 mm 3 mps 725 mmHg 18%
    15:00 +37°C° 0 mm 3 mps 724 mmHg 19%
    16:00 +36°C° 0 mm 4 mps 724 mmHg 19%
    17:00 +36°C° 0 mm 4 mps 724 mmHg 19%
    18:00 +34°C° 0 mm 4 mps 724 mmHg 23%
    19:00 +32°C° 0 mm 4 mps 725 mmHg 27%
    20:00 +30°C° 0 mm 4 mps 725 mmHg 31%
    21:00 +29°C° 0 mm 4 mps 725 mmHg 35%
    22:00 +28°C° 0 mm 4 mps 725 mmHg 39%
    23:00 +26°C° 0 mm 4 mps 725 mmHg 43%
    Show more